Location: Newark
(44.2764°N, 5.2753°E)
Time: 02:53:48
(UTC+00:00)

ISS - Visible Passes

Search period start: 18 January 2020 00:00
Search period end: 28 January 2020 00:00
Orbit: 415 x 421 km, 51.6° (Epoch: 18 January)

Date Brightness Start Highest point End Pass type
(mag) Time Alt. Az. Time Alt. Az. Time Alt. Az.
19 Jan -1.7 18:11:00 10° S 18:12:28 16° SSE 18:12:28 16° SSE visible
20 Jan -1.4 17:24:46 10° SE 17:25:35 11° SE 17:26:24 10° ESE visible
20 Jan -1.4 18:58:28 10° SW 18:59:48 22° SW 18:59:48 22° SW visible
21 Jan -3.4 18:10:39 10° SW 18:13:53 45° SE 18:14:05 45° SE visible
22 Jan -2.5 17:23:04 10° SSW 17:25:59 28° SE 17:28:17 14° E visible
22 Jan -1.7 18:59:21 10° W 19:01:13 28° W 19:01:13 28° W visible
23 Jan -3.7 18:11:13 10° WSW 18:14:34 72° NNW 18:15:21 48° NE visible
24 Jan -3.7 17:23:12 10° SW 17:26:33 73° SSE 17:29:24 14° ENE visible
24 Jan -1.5 19:00:34 10° WNW 19:02:20 23° NW 19:02:20 23° NW visible
25 Jan -2.7 18:12:14 10° W 18:15:24 36° NNW 18:16:20 30° NNE visible
26 Jan -3.1 17:23:59 10° WSW 17:27:16 50° NNW 17:30:18 12° NE visible
26 Jan -1.3 19:01:47 10° WNW 19:03:14 18° NW 19:03:14 18° NW visible
27 Jan -2.2 18:13:28 10° WNW 18:16:20 25° N 18:17:09 23° NNE visible
